Location: Kumla
(59.1265°N, 15.1401°E)
Time: 14:56:16
(UTC+01:00)

A-11 Canister half - Pass Details

Date: 05 December 2023
Orbit: 1526 x 1682 km, 47.3° (Epoch: 24 February)

Event Time Altitude Azimuth Distance (km) Brightness Sun altitude
Rises 01:40:37 0° 279° (W) 4,907 - -48.3°
Reaches altitude 10° 01:44:53 10° 265° (W) 3,895 - -47.9°
Maximum altitude 01:51:21 20° 223° (SW) 3,129 - -47.3°
Drops below altitude 10° 01:57:42 10° 181° (S) 3,805 - -46.8°
Sets 02:01:49 0° 166° (SSE) 4,760 - -46.4°
